Time,TemperatureF,DewpointF,PressureIn,WindDirection,WindDirectionDegrees,WindSpeedMPH,WindSpeedGustMPH,Humidity,HourlyPrecipIn,Conditions,Clouds,dailyrainin,SolarRadiationWatts/m^2,SoftwareType,DateUTC
2013-02-18 00:01:00,24.0,17.0,-100.00,North,-999,-999.0,5.0,77,0.00,,,-99.99,0.000000,,2013-02-18 07:01:00,
2013-02-18 00:11:00,24.0,16.0,-100.00,North,-999,-999.0,5.0,73,0.00,,,-99.99,0.000000,,2013-02-18 07:11:00,
2013-02-18 00:21:00,24.0,17.0,-100.00,North,-999,-999.0,5.0,74,0.00,,,-99.99,0.000000,,2013-02-18 07:21:00,
2013-02-18 00:31:00,23.0,16.0,-100.00,North,-999,-999.0,4.0,75,0.00,,,-99.99,0.000000,,2013-02-18 07:31:00,
2013-02-18 00:42:00,23.0,16.0,-100.00,North,-999,-999.0,5.0,75,0.00,,,-99.99,0.000000,,2013-02-18 07:42:00,
2013-02-18 00:50:00,23.0,16.0,-100.00,North,-999,-999.0,5.0,76,0.00,,,-99.99,0.000000,,2013-02-18 07:50:00,
2013-02-18 00:51:00,23.0,17.0,-100.00,North,-999,-999.0,4.0,80,0.00,,,-99.99,0.000000,,2013-02-18 07:51:00,
2013-02-18 01:01:00,23.0,18.0,-100.00,North,-999,-999.0,4.0,80,0.00,,,-99.99,0.000000,,2013-02-18 08:01:00,
2013-02-18 01:11:00,23.0,16.0,-100.00,North,-999,-999.0,5.0,76,0.00,,,-99.99,0.000000,,2013-02-18 08:11:00,
2013-02-18 01:21:00,23.0,16.0,-100.00,North,-999,-999.0,5.0,76,0.00,,,-99.99,0.000000,,2013-02-18 08:21:00,
2013-02-18 01:32:00,23.0,16.0,-100.00,North,-999,-999.0,5.0,76,0.00,,,-99.99,0.000000,,2013-02-18 08:32:00,
2013-02-18 01:41:00,23.0,16.0,-100.00,North,-999,-999.0,5.0,76,0.00,,,-99.99,0.000000,,2013-02-18 08:41:00,
2013-02-18 02:22:00,25.0,16.0,-100.00,North,-999,-999.0,13.0,68,0.00,,,-99.99,0.000000,,2013-02-18 09:22:00,
2013-02-18 02:32:00,24.0,16.0,-100.00,North,-999,-999.0,12.0,69,0.00,,,-99.99,0.000000,,2013-02-18 09:32:00,
2013-02-18 02:42:00,24.0,16.0,-100.00,North,-999,-999.0,15.0,69,0.00,,,-99.99,0.000000,,2013-02-18 09:42:00,
2013-02-18 02:52:00,25.0,15.0,-100.00,North,-999,-999.0,13.0,66,0.00,,,-99.99,0.000000,,2013-02-18 09:52:00,
2013-02-18 03:01:00,24.0,15.0,-100.00,North,-999,-999.0,12.0,68,0.00,,,-99.99,0.000000,,2013-02-18 10:01:00,
2013-02-18 03:11:00,26.0,16.0,-100.00,North,-999,-999.0,8.0,65,0.00,,,-99.99,0.000000,,2013-02-18 10:11:00,
2013-02-18 03:21:00,24.0,15.0,-100.00,North,-999,-999.0,7.0,67,0.00,,,-99.99,0.000000,,2013-02-18 10:21:00,
2013-02-18 03:31:00,24.0,15.0,-100.00,North,-999,-999.0,10.0,68,0.00,,,-99.99,0.000000,,2013-02-18 10:31:00,
2013-02-18 03:41:00,24.0,15.0,-100.00,North,-999,-999.0,13.0,69,0.00,,,-99.99,0.000000,,2013-02-18 10:41:00,
2013-02-18 03:51:00,24.0,15.0,-100.00,North,-999,-999.0,9.0,69,0.00,,,-99.99,0.000000,,2013-02-18 10:51:00,
2013-02-18 04:01:00,24.0,15.0,-100.00,North,-999,-999.0,4.0,68,0.00,,,-99.99,0.000000,,2013-02-18 11:01:00,
2013-02-18 04:11:00,23.0,14.0,-100.00,North,-999,-999.0,9.0,69,0.00,,,-99.99,0.000000,,2013-02-18 11:11:00,
2013-02-18 04:21:00,23.0,15.0,-100.00,North,-999,-999.0,7.0,70,0.00,,,-99.99,0.000000,,2013-02-18 11:21:00,
2013-02-18 04:31:00,22.0,14.0,-100.00,North,-999,-999.0,6.0,71,0.00,,,-99.99,0.000000,,2013-02-18 11:31:00,
2013-02-18 04:41:00,23.0,16.0,-100.00,North,-999,-999.0,4.0,74,0.00,,,-99.99,0.000000,,2013-02-18 11:41:00,
2013-02-18 04:52:00,23.0,15.0,-100.00,North,-999,-999.0,4.0,73,0.00,,,-99.99,0.000000,,2013-02-18 11:52:00,
2013-02-18 05:01:00,23.0,13.0,-100.00,North,-999,-999.0,11.0,64,0.00,,,-99.99,0.000000,,2013-02-18 12:01:00,
2013-02-18 05:11:00,22.0,12.0,-100.00,North,-999,-999.0,13.0,66,0.00,,,-99.99,0.000000,,2013-02-18 12:11:00,
2013-02-18 05:21:00,20.0,13.0,-100.00,North,-999,-999.0,16.0,71,0.00,,,-99.99,0.000000,,2013-02-18 12:21:00,
2013-02-18 05:31:00,20.0,13.0,-100.00,North,-999,-999.0,15.0,73,0.00,,,-99.99,0.000000,,2013-02-18 12:31:00,
2013-02-18 05:41:00,20.0,13.0,-100.00,North,-999,-999.0,11.0,72,0.00,,,-99.99,0.000000,,2013-02-18 12:41:00,
2013-02-18 05:50:00,19.0,14.0,-100.00,North,-999,-999.0,13.0,82,0.00,,,-99.99,0.000000,,2013-02-18 12:50:00,
2013-02-18 05:52:00,19.0,14.0,-100.00,North,-999,-999.0,13.0,78,0.00,,,-99.99,0.000000,,2013-02-18 12:52:00,
2013-02-18 06:02:00,20.0,13.0,-100.00,North,-999,-999.0,13.0,72,0.00,,,-99.99,0.000000,,2013-02-18 13:02:00,
2013-02-18 06:11:00,19.0,14.0,-100.00,North,-999,-999.0,13.0,82,0.00,,,-99.99,0.000000,,2013-02-18 13:11:00,
2013-02-18 06:22:00,19.0,14.0,-100.00,North,-999,-999.0,13.0,82,0.00,,,-99.99,0.000000,,2013-02-18 13:22:00,
2013-02-18 06:31:00,19.0,14.0,-100.00,North,-999,-999.0,13.0,82,0.00,,,-99.99,0.000000,,2013-02-18 13:31:00,
2013-02-18 06:41:00,19.0,14.0,-100.00,North,-999,-999.0,13.0,82,0.00,,,-99.99,0.000000,,2013-02-18 13:41:00,
2013-02-18 07:22:00,20.0,12.0,-100.00,North,-999,-999.0,10.0,71,0.00,,,-99.99,1.000000,,2013-02-18 14:22:00,
2013-02-18 07:33:00,21.0,12.0,-100.00,North,-999,-999.0,11.0,68,0.00,,,-99.99,4.000000,,2013-02-18 14:33:00,
2013-02-18 07:42:00,21.0,12.0,-100.00,North,-999,-999.0,10.0,67,0.00,,,-99.99,9.000000,,2013-02-18 14:42:00,
2013-02-18 07:53:00,21.0,12.0,-100.00,North,-999,-999.0,9.0,68,0.00,,,-99.99,15.000000,,2013-02-18 14:53:00,
2013-02-18 08:01:00,22.0,12.0,-100.00,North,-999,-999.0,11.0,66,0.00,,,-99.99,20.000000,,2013-02-18 15:01:00,
2013-02-18 08:11:00,22.0,12.0,-100.00,North,-999,-999.0,15.0,66,0.00,,,-99.99,25.000000,,2013-02-18 15:11:00,
2013-02-18 08:21:00,22.0,13.0,-100.00,North,-999,-999.0,15.0,66,0.00,,,-99.99,30.000000,,2013-02-18 15:21:00,
2013-02-18 08:31:00,23.0,13.0,-100.00,North,-999,-999.0,13.0,67,0.00,,,-99.99,35.000000,,2013-02-18 15:31:00,
2013-02-18 08:41:00,24.0,14.0,-100.00,North,-999,-999.0,12.0,65,0.00,,,-99.99,192.000000,,2013-02-18 15:41:00,
2013-02-18 08:51:00,26.0,14.0,-100.00,North,-999,-999.0,10.0,61,0.00,,,-99.99,227.000000,,2013-02-18 15:51:00,
2013-02-18 09:01:00,25.0,15.0,-100.00,North,-999,-999.0,7.0,65,0.00,,,-99.99,267.000000,,2013-02-18 16:01:00,
2013-02-18 09:11:00,25.0,12.0,-100.00,North,-999,-999.0,14.0,57,0.00,,,-99.99,303.000000,,2013-02-18 16:11:00,
2013-02-18 09:21:00,25.0,13.0,-100.00,North,-999,-999.0,12.0,59,0.00,,,-99.99,336.000000,,2013-02-18 16:21:00,
2013-02-18 09:31:00,25.0,14.0,-100.00,North,-999,-999.0,15.0,61,0.00,,,-99.99,373.000000,,2013-02-18 16:31:00,
2013-02-18 09:41:00,26.0,14.0,-100.00,North,-999,-999.0,16.0,60,0.00,,,-99.99,390.000000,,2013-02-18 16:41:00,
2013-02-18 09:51:00,27.0,14.0,-100.00,North,-999,-999.0,15.0,59,0.00,,,-99.99,392.000000,,2013-02-18 16:51:00,
2013-02-18 10:02:00,27.0,13.0,-100.00,North,-999,-999.0,14.0,55,0.00,,,-99.99,453.000000,,2013-02-18 17:02:00,
2013-02-18 10:11:00,29.0,14.0,-100.00,North,-999,-999.0,12.0,52,0.00,,,-99.99,530.000000,,2013-02-18 17:11:00,
2013-02-18 10:21:00,30.0,16.0,-100.00,North,-999,-999.0,11.0,54,0.00,,,-99.99,507.000000,,2013-02-18 17:21:00,
2013-02-18 10:31:00,30.0,17.0,-100.00,North,-999,-999.0,9.0,56,0.00,,,-99.99,475.000000,,2013-02-18 17:31:00,
2013-02-18 10:42:00,31.0,17.0,-100.00,North,-999,-999.0,11.0,55,0.00,,,-99.99,583.000000,,2013-02-18 17:42:00,
2013-02-18 10:50:00,31.0,20.0,-100.00,North,-999,-999.0,7.0,62,0.00,,,-99.99,621.000000,,2013-02-18 17:50:00,
2013-02-18 10:52:00,32.0,18.0,-100.00,North,-999,-999.0,8.0,57,0.00,,,-99.99,576.000000,,2013-02-18 17:52:00,
2013-02-18 11:01:00,31.0,18.0,-100.00,North,-999,-999.0,8.0,58,0.00,,,-99.99,653.000000,,2013-02-18 18:01:00,
2013-02-18 11:11:00,31.0,20.0,-100.00,North,-999,-999.0,7.0,62,0.00,,,-99.99,621.000000,,2013-02-18 18:11:00,
2013-02-18 11:21:00,31.0,20.0,-100.00,North,-999,-999.0,7.0,62,0.00,,,-99.99,621.000000,,2013-02-18 18:21:00,
2013-02-18 11:32:00,31.0,20.0,-100.00,North,-999,-999.0,7.0,62,0.00,,,-99.99,621.000000,,2013-02-18 18:32:00,
2013-02-18 11:42:00,31.0,20.0,-100.00,North,-999,-999.0,7.0,62,0.00,,,-99.99,621.000000,,2013-02-18 18:42:00,
2013-02-18 12:23:00,35.0,14.0,-100.00,North,-999,-999.0,10.0,41,0.00,,,-99.99,654.000000,,2013-02-18 19:23:00,
2013-02-18 12:33:00,35.0,16.0,-100.00,North,-999,-999.0,11.0,46,0.00,,,-99.99,628.000000,,2013-02-18 19:33:00,
2013-02-18 12:43:00,35.0,14.0,-100.00,North,-999,-999.0,12.0,43,0.00,,,-99.99,552.000000,,2013-02-18 19:43:00,
2013-02-18 12:52:00,36.0,15.0,-100.00,North,-999,-999.0,10.0,42,0.00,,,-99.99,711.000000,,2013-02-18 19:52:00,
2013-02-18 13:01:00,36.0,14.0,-100.00,North,-999,-999.0,9.0,40,0.00,,,-99.99,728.000000,,2013-02-18 20:01:00,
2013-02-18 13:21:00,38.0,10.0,-100.00,North,-999,-999.0,9.0,32,0.00,,,-99.99,666.000000,,2013-02-18 20:21:00,
2013-02-18 13:32:00,38.0,10.0,-100.00,North,-999,-999.0,9.0,32,0.00,,,-99.99,666.000000,,2013-02-18 20:32:00,
2013-02-18 13:41:00,37.0,18.0,-100.00,North,-999,-999.0,6.0,46,0.00,,,-99.99,752.000000,,2013-02-18 20:41:00,
2013-02-18 13:52:00,36.0,20.0,-100.00,North,-999,-999.0,10.0,52,0.00,,,-99.99,614.000000,,2013-02-18 20:52:00,
2013-02-18 14:02:00,36.0,18.0,-100.00,North,-999,-999.0,9.0,48,0.00,,,-99.99,577.000000,,2013-02-18 21:02:00,
2013-02-18 14:11:00,36.0,17.0,-100.00,North,-999,-999.0,8.0,46,0.00,,,-99.99,415.000000,,2013-02-18 21:11:00,
2013-02-18 14:21:00,37.0,18.0,-100.00,North,-999,-999.0,7.0,47,0.00,,,-99.99,702.000000,,2013-02-18 21:21:00,
2013-02-18 14:31:00,37.0,16.0,-100.00,North,-999,-999.0,8.0,41,0.00,,,-99.99,626.000000,,2013-02-18 21:31:00,
2013-02-18 14:42:00,38.0,17.0,-100.00,North,-999,-999.0,6.0,41,0.00,,,-99.99,546.000000,,2013-02-18 21:42:00,
2013-02-18 14:51:00,38.0,17.0,-100.00,North,-999,-999.0,6.0,41,0.00,,,-99.99,546.000000,,2013-02-18 21:51:00,
2013-02-18 15:01:00,38.0,17.0,-100.00,North,-999,-999.0,8.0,41,0.00,,,-99.99,559.000000,,2013-02-18 22:01:00,
2013-02-18 15:11:00,38.0,20.0,-100.00,North,-999,-999.0,6.0,48,0.00,,,-99.99,521.000000,,2013-02-18 22:11:00,
2013-02-18 15:21:00,38.0,20.0,-100.00,North,-999,-999.0,10.0,48,0.00,,,-99.99,612.000000,,2013-02-18 22:21:00,
2013-02-18 15:32:00,38.0,20.0,-100.00,North,-999,-999.0,10.0,48,0.00,,,-99.99,612.000000,,2013-02-18 22:32:00,
2013-02-18 15:41:00,38.0,19.0,-100.00,North,-999,-999.0,8.0,45,0.00,,,-99.99,584.000000,,2013-02-18 22:41:00,
2013-02-18 15:50:00,39.0,16.0,-100.00,North,-999,-999.0,7.0,38,0.00,,,-99.99,467.000000,,2013-02-18 22:50:00,
2013-02-18 15:52:00,39.0,19.0,-100.00,North,-999,-999.0,9.0,44,0.00,,,-99.99,536.000000,,2013-02-18 22:52:00,
2013-02-18 16:01:00,40.0,15.0,-100.00,North,-999,-999.0,8.0,36,0.00,,,-99.99,506.000000,,2013-02-18 23:01:00,
2013-02-18 16:11:00,39.0,16.0,-100.00,North,-999,-999.0,7.0,38,0.00,,,-99.99,467.000000,,2013-02-18 23:11:00,
2013-02-18 16:21:00,39.0,16.0,-100.00,North,-999,-999.0,7.0,38,0.00,,,-99.99,467.000000,,2013-02-18 23:21:00,
2013-02-18 16:32:00,39.0,16.0,-100.00,North,-999,-999.0,7.0,38,0.00,,,-99.99,467.000000,,2013-02-18 23:32:00,
2013-02-18 16:42:00,39.0,16.0,-100.00,North,-999,-999.0,7.0,38,0.00,,,-99.99,467.000000,,2013-02-18 23:42:00,
2013-02-18 17:23:00,37.0,17.0,-100.00,North,-999,-999.0,7.0,43,0.00,,,-99.99,230.000000,,2013-02-19 00:23:00,
2013-02-18 17:35:00,36.0,17.0,-100.00,North,-999,-999.0,7.0,45,0.00,,,-99.99,187.000000,,2013-02-19 00:35:00,
2013-02-18 17:43:00,35.0,19.0,-100.00,North,-999,-999.0,6.0,51,0.00,,,-99.99,158.000000,,2013-02-19 00:43:00,
2013-02-18 17:54:00,35.0,19.0,-100.00,North,-999,-999.0,5.0,51,0.00,,,-99.99,121.000000,,2013-02-19 00:54:00,
2013-02-18 18:02:00,34.0,18.0,-100.00,North,-999,-999.0,4.0,50,0.00,,,-99.99,54.000000,,2013-02-19 01:02:00,
2013-02-18 18:12:00,33.0,19.0,-100.00,North,-999,-999.0,2.0,54,0.00,,,-99.99,32.000000,,2013-02-19 01:12:00,
2013-02-18 18:21:00,32.0,19.0,-100.00,North,-999,-999.0,3.0,59,0.00,,,-99.99,12.000000,,2013-02-19 01:21:00,
2013-02-18 18:32:00,30.0,19.0,-100.00,North,-999,-999.0,4.0,63,0.00,,,-99.99,3.000000,,2013-02-19 01:32:00,
2013-02-18 18:42:00,28.0,20.0,-100.00,North,-999,-999.0,4.0,69,0.00,,,-99.99,1.000000,,2013-02-19 01:42:00,
2013-02-18 18:52:00,28.0,19.0,-100.00,North,-999,-999.0,3.0,69,0.00,,,-99.99,0.000000,,2013-02-19 01:52:00,
2013-02-18 19:01:00,27.0,19.0,-100.00,North,-999,-999.0,5.0,69,0.00,,,-99.99,0.000000,,2013-02-19 02:01:00,
2013-02-18 19:12:00,26.0,18.0,-100.00,North,-999,-999.0,6.0,70,0.00,,,-99.99,0.000000,,2013-02-19 02:12:00,
2013-02-18 19:21:00,26.0,18.0,-100.00,North,-999,-999.0,4.0,69,0.00,,,-99.99,0.000000,,2013-02-19 02:21:00,
2013-02-18 19:32:00,26.0,19.0,-100.00,North,-999,-999.0,3.0,74,0.00,,,-99.99,0.000000,,2013-02-19 02:32:00,
2013-02-18 19:42:00,26.0,19.0,-100.00,North,-999,-999.0,3.0,73,0.00,,,-99.99,0.000000,,2013-02-19 02:42:00,
2013-02-18 19:52:00,27.0,19.0,-100.00,North,-999,-999.0,4.0,74,0.00,,,-99.99,0.000000,,2013-02-19 02:52:00,
2013-02-18 20:03:00,27.0,18.0,-100.00,North,-999,-999.0,5.0,71,0.00,,,-99.99,0.000000,,2013-02-19 03:03:00,
2013-02-18 20:12:00,27.0,18.0,-100.00,North,-999,-999.0,5.0,69,0.00,,,-99.99,0.000000,,2013-02-19 03:12:00,
2013-02-18 20:21:00,27.0,19.0,-100.00,North,-999,-999.0,5.0,69,0.00,,,-99.99,0.000000,,2013-02-19 03:21:00,
2013-02-18 20:32:00,28.0,19.0,-100.00,North,-999,-999.0,4.0,68,0.00,,,-99.99,0.000000,,2013-02-19 03:32:00,
2013-02-18 20:50:00,29.0,16.0,-100.00,North,-999,-999.0,5.0,58,0.00,,,-99.99,0.000000,,2013-02-19 03:50:00,
2013-02-18 20:52:00,28.0,19.0,-100.00,North,-999,-999.0,5.0,68,0.00,,,-99.99,0.000000,,2013-02-19 03:52:00,
2013-02-18 21:01:00,28.0,17.0,-100.00,North,-999,-999.0,6.0,63,0.00,,,-99.99,0.000000,,2013-02-19 04:01:00,
2013-02-18 21:21:00,29.0,16.0,-100.00,North,-999,-999.0,5.0,58,0.00,,,-99.99,0.000000,,2013-02-19 04:21:00,
2013-02-18 21:32:00,29.0,16.0,-100.00,North,-999,-999.0,5.0,58,0.00,,,-99.99,0.000000,,2013-02-19 04:32:00,
2013-02-18 21:42:00,29.0,16.0,-100.00,North,-999,-999.0,5.0,58,0.00,,,-99.99,0.000000,,2013-02-19 04:42:00,
2013-02-18 22:23:00,29.0,16.0,-100.00,North,-999,-999.0,12.0,57,0.00,,,-99.99,0.000000,,2013-02-19 05:23:00,
2013-02-18 22:32:00,29.0,16.0,-100.00,North,-999,-999.0,11.0,58,0.00,,,-99.99,0.000000,,2013-02-19 05:32:00,
2013-02-18 22:43:00,28.0,16.0,-100.00,North,-999,-999.0,9.0,61,0.00,,,-99.99,0.000000,,2013-02-19 05:43:00,
2013-02-18 22:52:00,29.0,16.0,-100.00,North,-999,-999.0,8.0,58,0.00,,,-99.99,0.000000,,2013-02-19 05:52:00,
2013-02-18 23:02:00,27.0,15.0,-100.00,North,-999,-999.0,7.0,61,0.00,,,-99.99,0.000000,,2013-02-19 06:02:00,
2013-02-18 23:11:00,28.0,16.0,-100.00,North,-999,-999.0,9.0,60,0.00,,,-99.99,0.000000,,2013-02-19 06:11:00,
2013-02-18 23:21:00,27.0,15.0,-100.00,North,-999,-999.0,9.0,60,0.00,,,-99.99,0.000000,,2013-02-19 06:21:00,
2013-02-18 23:32:00,28.0,15.0,-100.00,North,-999,-999.0,10.0,59,0.00,,,-99.99,0.000000,,2013-02-19 06:32:00,
2013-02-18 23:41:00,28.0,14.0,-100.00,North,-999,-999.0,8.0,54,0.00,,,-99.99,0.000000,,2013-02-19 06:41:00,
2013-02-18 23:52:00,28.0,15.0,-100.00,North,-999,-999.0,6.0,56,0.00,,,-99.99,0.000000,,2013-02-19 06:52:00,